QPF
0.01 0.01 0.00 0.01 0.01 0.01 0.01 0.01 0.01 0.01 0.01 0.02 0.02 0.03 0.02 0.02 0.02 0.02 0.03 0.03 0.03 0.02 0.01 0.01 0.01 0.01 0.02 0.02 0.02 0.01 0.01 0.01 0.00 0.01 0.01 0.00 0.00 0.00 0.00 0.00 0.00 0.00 0.01
0.00 0.01 0.00 0.00 0.01 0.01 0.02 0.02 0.01 0.01 0.01 0.01 0.02 0.02 0.03 0.02 0.01 0.01 0.01 0.01 0.02 0.02 0.01 0.01 0.01 0.02 0.02 0.02 0.02 0.02 0.02 0.01 0.01 0.01 0.01 0.01 0.01 0.00 0.00 0.00 0.00 0.00 0.00
0.01 0.01 0.00 0.00 0.00 0.01 0.02 0.04 0.02 0.02 0.02 0.02 0.02 0.02 0.02 0.02 0.02 0.01 0.01 0.01 0.01 0.01 0.01 0.01 0.01 0.02 0.02 0.02 0.01 0.01 0.02 0.02 0.01 0.00 0.01 0.01 0.01 0.01 0.01 0.00 0.00 0.00 0.00
0.01 0.01 0.01 0.00 0.00 0.01 0.02 0.04 0.04 0.04 0.02 0.02 0.02 0.02 0.02 0.01 0.01 0.01 0.01 0.01 0.01 0.02 0.02 0.02 0.02 0.02 0.02 0.02 0.01 0.01 0.02 0.02 0.02 0.01 0.00 0.00 0.00 0.00 0.01 0.01 0.00 0.00 0.00
0.01 0.01 0.01 0.01 0.01 0.01 0.02 0.03 0.03 0.04 0.04 0.03 0.02 0.02 0.02 0.02 0.02 0.01 0.01 0.01 0.01 0.01 0.02 0.02 0.01 0.01 0.01 0.01 0.01 0.01 0.02 0.02 0.01 0.01 0.01 0.01 0.00 0.00 0.00 0.01 0.01 0.00 0.00
0.03 0.02 0.01 0.01 0.01 0.01 0.01 0.02 0.02 0.02 0.03 0.03 0.03 0.02 0.01 0.01 0.01 0.01 0.01 0.01 0.00 0.01 0.02 0.02 0.01 0.01 0.01 0.01 0.01 0.01 0.02 0.01 0.02 0.01 0.01 0.01 0.01 0.00 0.01 0.01 0.01 0.01 0.01
0.02 0.02 0.01 0.01 0.01 0.01 0.00 0.01 0.03 0.02 0.02 0.02 0.02 0.02 0.02 0.02 0.02 0.02 0.02 0.01 0.01 0.01 0.01 0.02 0.01 0.01 0.02 0.02 0.01 0.01 0.01 0.02 0.02 0.01 0.01 0.01 0.00 0.00 0.01 0.01 0.01 0.01 0.01
0.01 0.01 0.01 0.01 0.01 0.01 0.01 0.01 0.02 0.03 0.03 0.03 0.02 0.02 0.02 0.02 0.02 0.01 0.01 0.01 0.01 0.01 0.01 0.01 0.02 0.02 0.01 0.01 0.01 0.01 0.02 0.01 0.02 0.01 0.01 0.01 0.01 0.00 0.01 0.01 0.01 0.01 0.01
0.00 0.00 0.01 0.01 0.01 0.01 0.01 0.01 0.01 0.02 0.02 0.03 0.02 0.01 0.01 0.01 0.01 0.01 0.00 0.01 0.01 0.02 0.02 0.02 0.02 0.01 0.01 0.01 0.00 0.01 0.01 0.01 0.01 0.01 0.02 0.02 0.02 0.01 0.01 0.01 0.01 0.01 0.01
0.01 0.01 0.01 0.02 0.02 0.01 0.01 0.01 0.01 0.01 0.01 0.02 0.02 0.01 0.01 0.01 0.01 0.01 0.01 0.01 0.01 0.01 0.01 0.01 0.02 0.02 0.01 0.01 0.01 0.00 0.01 0.01 0.01 0.02 0.02 0.02 0.02 0.01 0.01 0.01 0.01 0.01 0.01
0.01 0.02 0.03 0.03 0.02 0.01 0.01 0.01 0.01 0.01 0.01 0.02 0.02 0.01 0.01 0.01 0.01 0.01 0.01 0.01 0.01 0.01 0.01 0.01 0.01 0.01 0.01 0.01 0.00 0.00 0.01 0.01 0.01 0.02 0.02 0.03 0.02 0.01 0.01 0.01 0.01 0.01 0.01
0.01 0.01 0.01 0.00 0.00 0.01 0.01 0.01 0.01 0.01 0.02 0.02 0.02 0.01 0.01 0.01 0.01 0.01 0.01 0.01 0.01 0.01 0.01 0.01 0.01 0.01 0.01 0.01 0.01 0.01 0.01 0.01 0.01 0.01 0.01 0.01 0.02 0.02 0.02 0.01 0.02 0.01 0.01
0.01 0.01 0.01 0.00 0.00 0.01 0.01 0.01 0.01 0.02 0.02 0.02 0.01 0.01 0.01 0.01 0.01 0.01 0.01 0.01 0.01 0.01 0.01 0.01 0.01 0.01 0.01 0.01 0.01 0.01 0.02 0.01 0.01 0.01 0.01 0.01 0.01 0.02 0.03 0.04 0.03 0.03 0.02
0.01 0.01 0.01 0.00 0.00 0.01 0.01 0.01 0.02 0.02 0.02 0.02 0.02 0.01 0.01 0.01 0.01 0.02 0.02 0.01 0.01 0.01 0.01 0.01 0.01 0.01 0.01 0.01 0.01 0.01 0.02 0.02 0.01 0.01 0.01 0.01 0.01 0.01 0.02 0.03 0.04 0.04 0.03
0.01 0.01 0.00 0.00 0.01 0.01 0.01 0.02 0.02 0.02 0.02 0.03 0.02 0.01 0.01 0.01 0.01 0.02 0.03 0.02 0.01 0.01 0.01 0.01 0.01 0.01 0.01 0.01 0.01 0.02 0.02 0.02 0.02 0.01 0.01 0.01 0.01 0.02 0.02 0.02 0.03 0.04 0.05
0.00 0.00 0.00 0.00 0.01 0.02 0.03 0.03 0.03 0.03 0.02 0.02 0.02 0.01 0.01 0.01 0.01 0.01 0.02 0.03 0.02 0.01 0.01 0.01 0.01 0.01 0.01 0.01 0.01 0.02 0.02 0.02 0.02 0.02 0.01 0.01 0.02 0.02 0.02 0.02 0.03 0.03 0.04
0.01 0.01 0.00 0.00 0.01 0.02 0.02 0.03 0.04 0.04 0.03 0.02 0.02 0.01 0.01 0.02 0.02 0.02 0.02 0.02 0.02 0.02 0.01 0.01 0.01 0.01 0.02 0.02 0.02 0.02 0.02 0.02 0.02 0.02 0.02 0.02 0.02 0.02 0.02 0.02 0.03 0.02 0.03
0.01 0.01 0.01 0.01 0.02 0.02 0.02 0.02 0.02 0.03 0.04 0.02 0.02 0.01 0.01 0.02 0.03 0.03 0.02 0.01 0.01 0.01 0.02 0.01 0.01 0.01 0.02 0.02 0.02 0.02 0.02 0.02 0.02 0.03 0.03 0.03 0.02 0.02 0.02 0.02 0.03 0.03 0.03
0.01 0.02 0.01 0.01 0.02 0.01 0.02 0.02 0.02 0.02 0.02 0.02 0.02 0.02 0.02 0.02 0.04 0.05 0.03 0.02 0.01 0.01 0.01 0.01 0.01 0.01 0.02 0.02 0.02 0.02 0.02 0.02 0.03 0.04 0.03 0.03 0.02 0.02 0.02 0.02 0.03 0.03 0.04
0.01 0.02 0.01 0.01 0.01 0.01 0.01 0.02 0.02 0.02 0.01 0.01 0.02 0.02 0.02 0.02 0.03 0.06 0.07 0.04 0.03 0.02 0.01 0.01 0.01 0.02 0.02 0.03 0.02 0.03 0.03 0.03 0.04 0.04 0.05 0.04 0.03 0.03 0.02 0.02 0.03 0.02 0.02
0.01 0.01 0.01 0.01 0.01 0.01 0.01 0.02 0.03 0.02 0.02 0.01 0.02 0.02 0.02 0.02 0.02 0.05 0.08 0.07 0.06 0.04 0.03 0.03 0.02 0.02 0.03 0.03 0.03 0.03 0.04 0.05 0.06 0.06 0.05 0.04 0.03 0.03 0.02 0.02 0.02 0.03 0.02
0.00 0.01 0.01 0.01 0.01 0.02 0.02 0.02 0.02 0.03 0.02 0.02 0.01 0.01 0.02 0.02 0.02 0.04 0.06 0.07 0.07 0.06 0.05 0.04 0.04 0.04 0.03 0.03 0.03 0.03 0.04 0.07 0.08 0.07 0.06 0.05 0.05 0.04 0.03 0.03 0.03 0.04 0.04
0.00 0.01 0.01 0.01 0.01 0.02 0.02 0.02 0.02 0.03 0.03 0.03 0.02 0.02 0.02 0.02 0.02 0.03 0.04 0.05 0.06 0.05 0.04 0.05 0.05 0.04 0.03 0.03 0.03 0.04 0.04 0.05 0.07 0.08 0.07 0.08 0.07 0.06 0.04 0.04 0.05 0.05 0.04
0.00 0.01 0.01 0.02 0.01 0.01 0.01 0.01 0.02 0.02 0.03 0.03 0.03 0.03 0.03 0.03 0.03 0.03 0.03 0.03 0.03 0.04 0.04 0.03 0.04 0.04 0.03 0.02 0.02 0.02 0.03 0.04 0.05 0.09 0.09 0.08 0.08 0.09 0.07 0.07 0.06 0.05 0.04
0.00 0.00 0.01 0.02 0.02 0.01 0.01 0.01 0.01 0.01 0.02 0.02 0.03 0.04 0.04 0.03 0.03 0.02 0.02 0.02 0.02 0.03 0.03 0.03 0.03 0.03 0.02 0.02 0.02 0.01 0.02 0.03 0.04 0.06 0.08 0.10 0.11 0.12 0.11 0.09 0.07 0.06 0.05
0.01 0.01 0.01 0.01 0.02 0.01 0.01 0.01 0.01 0.01 0.01 0.02 0.03 0.04 0.04 0.03 0.03 0.02 0.02 0.03 0.03 0.04 0.04 0.03 0.03 0.02 0.02 0.02 0.01 0.01 0.02 0.02 0.04 0.05 0.06 0.07 0.09 0.09 0.10 0.10 0.08 0.06 0.04
MSLP
1012.83 1013.11 1013.37 1013.59 1013.75 1013.87 1013.95 1014.03 1014.13 1014.27 1014.46 1014.69 1014.94 1015.20 1015.43 1015.60 1015.69 1015.70 1015.63 1015.50 1015.34 1015.15 1014.96 1014.77 1014.58 1014.39 1014.18 1013.95 1013.68 1013.39 1013.08 1012.77 1012.49 1012.25 1012.08 1011.99 1011.97 1012.02 1012.12 1012.24 1012.36 1012.47 1012.56
1012.63 1012.99 1013.33 1013.60 1013.79 1013.92 1014.00 1014.07 1014.17 1014.33 1014.55 1014.83 1015.15 1015.47 1015.76 1015.99 1016.14 1016.19 1016.16 1016.06 1015.93 1015.78 1015.62 1015.48 1015.33 1015.17 1014.98 1014.76 1014.50 1014.20 1013.87 1013.55 1013.26 1013.01 1012.84 1012.73 1012.70 1012.71 1012.77 1012.84 1012.91 1012.98 1013.03
1012.24 1012.69 1013.11 1013.44 1013.68 1013.82 1013.91 1013.99 1014.09 1014.26 1014.52 1014.84 1015.22 1015.61 1015.97 1016.26 1016.45 1016.56 1016.57 1016.52 1016.43 1016.33 1016.23 1016.13 1016.03 1015.91 1015.76 1015.57 1015.32 1015.02 1014.71 1014.39 1014.10 1013.85 1013.67 1013.54 1013.47 1013.44 1013.43 1013.42 1013.41 1013.40 1013.39
1011.68 1012.21 1012.71 1013.11 1013.40 1013.58 1013.69 1013.78 1013.91 1014.11 1014.40 1014.77 1015.20 1015.65 1016.07 1016.42 1016.68 1016.83 1016.90 1016.90 1016.86 1016.81 1016.76 1016.72 1016.67 1016.60 1016.48 1016.32 1016.10 1015.83 1015.54 1015.24 1014.96 1014.72 1014.53 1014.38 1014.26 1014.16 1014.07 1013.96 1013.85 1013.74 1013.64
1011.00 1011.61 1012.18 1012.65 1013.00 1013.23 1013.38 1013.50 1013.66 1013.90 1014.23 1014.65 1015.14 1015.65 1016.13 1016.54 1016.85 1017.06 1017.18 1017.22 1017.23 1017.23 1017.23 1017.23 1017.22 1017.19 1017.12 1016.99 1016.81 1016.58 1016.32 1016.05 1015.80 1015.58 1015.38 1015.21 1015.05 1014.88 1014.69 1014.47 1014.25 1014.02 1013.82
1010.29 1010.94 1011.57 1012.11 1012.52 1012.81 1013.01 1013.19 1013.39 1013.68 1014.06 1014.54 1015.08 1015.64 1016.18 1016.64 1017.00 1017.26 1017.42 1017.51 1017.56 1017.59 1017.63 1017.66 1017.69 1017.69 1017.65 1017.56 1017.41 1017.22 1017.01 1016.78 1016.57 1016.37 1016.18 1015.99 1015.79 1015.56 1015.29 1014.97 1014.63 1014.29 1013.99
1009.62 1010.30 1010.96 1011.55 1012.01 1012.36 1012.62 1012.86 1013.12 1013.46 1013.90 1014.44 1015.03 1015.65 1016.23 1016.74 1017.15 1017.44 1017.64 1017.77 1017.85 1017.91 1017.96 1018.02 1018.07 1018.09 1018.07 1018.01 1017.89 1017.75 1017.57 1017.40 1017.22 1017.06 1016.89 1016.70 1016.48 1016.20 1015.86 1015.47 1015.04 1014.60 1014.19
1009.05 1009.72 1010.39 1011.01 1011.51 1011.92 1012.24 1012.54 1012.87 1013.27 1013.77 1014.35 1015.00 1015.66 1016.29 1016.84 1017.28 1017.61 1017.84 1017.99 1018.10 1018.18 1018.25 1018.32 1018.37 1018.40 1018.40 1018.35 1018.27 1018.15 1018.01 1017.88 1017.75 1017.62 1017.48 1017.31 1017.08 1016.79 1016.41 1015.96 1015.47 1014.96 1014.47
1008.60 1009.23 1009.89 1010.51 1011.04 1011.48 1011.85 1012.21 1012.60 1013.07 1013.63 1014.27 1014.96 1015.66 1016.32 1016.90 1017.38 1017.74 1018.00 1018.18 1018.31 1018.41 1018.50 1018.58 1018.64 1018.67 1018.67 1018.63 1018.55 1018.45 1018.34 1018.24 1018.14 1018.05 1017.94 1017.79 1017.58 1017.29 1016.91 1016.44 1015.91 1015.36 1014.82
1008.26 1008.83 1009.45 1010.04 1010.57 1011.03 1011.45 1011.86 1012.32 1012.85 1013.46 1014.15 1014.89 1015.62 1016.32 1016.93 1017.43 1017.82 1018.11 1018.33 1018.49 1018.62 1018.73 1018.82 1018.89 1018.92 1018.92 1018.87 1018.79 1018.69 1018.59 1018.50 1018.42 1018.35 1018.27 1018.15 1017.96 1017.69 1017.33 1016.87 1016.34 1015.77 1015.20
1008.02 1008.51 1009.06 1009.60 1010.11 1010.57 1011.01 1011.47 1011.98 1012.57 1013.24 1013.98 1014.76 1015.52 1016.24 1016.88 1017.41 1017.84 1018.17 1018.43 1018.64 1018.81 1018.95 1019.07 1019.15 1019.19 1019.18 1019.12 1019.03 1018.91 1018.80 1018.70 1018.62 1018.55 1018.48 1018.38 1018.23 1017.99 1017.65 1017.22 1016.70 1016.15 1015.57
1007.83 1008.23 1008.70 1009.17 1009.63 1010.08 1010.54 1011.04 1011.60 1012.25 1012.97 1013.76 1014.57 1015.37 1016.12 1016.78 1017.34 1017.81 1018.19 1018.50 1018.77 1018.99 1019.18 1019.34 1019.44 1019.49 1019.47 1019.40 1019.28 1019.14 1019.00 1018.87 1018.77 1018.69 1018.62 1018.53 1018.39 1018.18 1017.87 1017.47 1016.99 1016.45 1015.89
1007.69 1008.00 1008.36 1008.76 1009.16 1009.59 1010.06 1010.58 1011.19 1011.89 1012.67 1013.50 1014.35 1015.18 1015.95 1016.64 1017.24 1017.74 1018.18 1018.55 1018.87 1019.16 1019.41 1019.61 1019.75 1019.81 1019.80 1019.71 1019.57 1019.39 1019.21 1019.04 1018.91 1018.80 1018.71 1018.62 1018.49 1018.29 1018.01 1017.64 1017.19 1016.67 1016.12
1007.59 1007.80 1008.07 1008.38 1008.73 1009.12 1009.58 1010.14 1010.79 1011.54 1012.37 1013.24 1014.13 1014.98 1015.77 1016.49 1017.11 1017.66 1018.14 1018.57 1018.96 1019.31 1019.62 1019.88 1020.05 1020.14 1020.13 1020.03 1019.87 1019.65 1019.43 1019.22 1019.05 1018.91 1018.80 1018.69 1018.55 1018.36 1018.09 1017.74 1017.31 1016.81 1016.28
1007.55 1007.67 1007.85 1008.07 1008.35 1008.71 1009.17 1009.75 1010.44 1011.23 1012.11 1013.02 1013.93 1014.81 1015.62 1016.35 1016.99 1017.57 1018.09 1018.57 1019.01 1019.43 1019.80 1020.10 1020.31 1020.42 1020.43 1020.33 1020.14 1019.91 1019.66 1019.41 1019.21 1019.04 1018.90 1018.77 1018.63 1018.43 1018.16 1017.81 1017.39 1016.90 1016.37
1007.58 1007.62 1007.71 1007.85 1008.08 1008.40 1008.86 1009.45 1010.17 1011.01 1011.91 1012.86 1013.79 1014.68 1015.50 1016.23 1016.89 1017.48 1018.03 1018.54 1019.03 1019.49 1019.90 1020.25 1020.50 1020.64 1020.66 1020.56 1020.38 1020.14 1019.87 1019.61 1019.38 1019.20 1019.04 1018.90 1018.74 1018.53 1018.26 1017.90 1017.46 1016.97 1016.43
1007.69 1007.66 1007.67 1007.75 1007.92 1008.22 1008.66 1009.26 1010.01 1010.87 1011.81 1012.77 1013.71 1014.60 1015.42 1016.15 1016.80 1017.40 1017.95 1018.49 1019.00 1019.49 1019.93 1020.31 1020.59 1020.75 1020.79 1020.72 1020.55 1020.32 1020.06 1019.80 1019.58 1019.39 1019.23 1019.08 1018.91 1018.69 1018.40 1018.02 1017.57 1017.05 1016.50
1007.87 1007.79 1007.74 1007.75 1007.88 1008.15 1008.59 1009.19 1009.95 1010.83 1011.78 1012.74 1013.69 1014.57 1015.37 1016.09 1016.73 1017.32 1017.87 1018.40 1018.92 1019.43 1019.89 1020.28 1020.58 1020.77 1020.84 1020.79 1020.65 1020.45 1020.21 1019.98 1019.78 1019.60 1019.45 1019.30 1019.13 1018.90 1018.59 1018.19 1017.71 1017.17 1016.59
1008.10 1007.98 1007.88 1007.85 1007.95 1008.20 1008.63 1009.23 1009.99 1010.86 1011.81 1012.77 1013.70 1014.57 1015.35 1016.05 1016.67 1017.24 1017.78 1018.30 1018.82 1019.32 1019.79 1020.20 1020.52 1020.73 1020.82 1020.81 1020.71 1020.54 1020.35 1020.15 1019.98 1019.83 1019.69 1019.56 1019.38 1019.15 1018.82 1018.41 1017.90 1017.33 1016.72
1008.36 1008.21 1008.08 1008.03 1008.10 1008.34 1008.75 1009.34 1010.09 1010.96 1011.89 1012.83 1013.74 1014.59 1015.34 1016.02 1016.62 1017.17 1017.69 1018.20 1018.71 1019.21 1019.68 1020.09 1020.42 1020.66 1020.79 1020.81 1020.75 1020.62 1020.47 1020.31 1020.17 1020.05 1019.94 1019.81 1019.64 1019.40 1019.07 1018.63 1018.11 1017.51 1016.88
1008.63 1008.46 1008.32 1008.26 1008.32 1008.54 1008.94 1009.52 1010.26 1011.10 1012.01 1012.92 1013.80 1014.62 1015.35 1016.00 1016.58 1017.11 1017.62 1018.12 1018.62 1019.11 1019.58 1020.00 1020.35 1020.61 1020.76 1020.82 1020.80 1020.71 1020.59 1020.47 1020.36 1020.25 1020.15 1020.03 1019.86 1019.62 1019.28 1018.84 1018.31 1017.71 1017.07
1008.90 1008.73 1008.58 1008.52 1008.59 1008.80 1009.20 1009.76 1010.47 1011.29 1012.16 1013.05 1013.90 1014.68 1015.39 1016.01 1016.58 1017.09 1017.59 1018.08 1018.57 1019.06 1019.53 1019.96 1020.32 1020.60 1020.78 1020.87 1020.87 1020.82 1020.73 1020.62 1020.52 1020.42 1020.32 1020.20 1020.02 1019.78 1019.45 1019.02 1018.49 1017.90 1017.26
1009.17 1009.01 1008.88 1008.83 1008.90 1009.12 1009.51 1010.06 1010.75 1011.53 1012.37 1013.22 1014.03 1014.78 1015.46 1016.07 1016.61 1017.12 1017.60 1018.09 1018.57 1019.06 1019.53 1019.96 1020.34 1020.63 1020.84 1020.95 1020.98 1020.95 1020.87 1020.77 1020.66 1020.55 1020.44 1020.30 1020.12 1019.88 1019.56 1019.15 1018.65 1018.08 1017.47
1009.46 1009.31 1009.20 1009.17 1009.26 1009.50 1009.88 1010.42 1011.08 1011.84 1012.64 1013.44 1014.22 1014.94 1015.59 1016.17 1016.70 1017.19 1017.66 1018.13 1018.61 1019.10 1019.57 1020.01 1020.39 1020.70 1020.93 1021.06 1021.11 1021.08 1021.01 1020.90 1020.77 1020.64 1020.50 1020.35 1020.16 1019.93 1019.62 1019.24 1018.79 1018.28 1017.72
1009.78 1009.65 1009.56 1009.56 1009.67 1009.92 1010.31 1010.83 1011.47 1012.19 1012.96 1013.72 1014.46 1015.14 1015.76 1016.32 1016.82 1017.30 1017.75 1018.21 1018.68 1019.15 1019.61 1020.06 1020.45 1020.77 1021.01 1021.16 1021.21 1021.20 1021.11 1020.99 1020.85 1020.69 1020.53 1020.36 1020.16 1019.94 1019.66 1019.33 1018.94 1018.49 1017.99
1010.14 1010.02 1009.96 1009.98 1010.12 1010.38 1010.77 1011.28 1011.90 1012.59 1013.31 1014.04 1014.74 1015.39 1015.97 1016.50 1016.98 1017.43 1017.86 1018.29 1018.74 1019.19 1019.64 1020.08 1020.47 1020.80 1021.05 1021.21 1021.28 1021.26 1021.18 1021.05 1020.89 1020.72 1020.54 1020.35 1020.16 1019.95 1019.71 1019.43 1019.10 1018.73 1018.32
Thickness
5731 5731 5730 5729 5728 5727 5727 5725 5723 5721 5719 5716 5714 5713 5711 5710 5709 5707 5706 5705 5705 5704 5704 5704 5703 5702 5701 5700 5700 5698 5697 5696 5696 5695 5693 5693 5694 5692 5690 5690 5689 5688 5686
5726 5725 5725 5725 5725 5723 5723 5722 5720 5718 5716 5713 5713 5711 5710 5709 5707 5704 5703 5702 5702 5701 5700 5700 5700 5698 5696 5696 5695 5693 5693 5692 5692 5691 5688 5686 5686 5686 5687 5686 5684 5684 5682
5722 5722 5721 5721 5720 5719 5718 5717 5716 5715 5712 5710 5709 5707 5705 5704 5703 5701 5700 5699 5698 5697 5697 5697 5696 5695 5694 5693 5691 5690 5688 5687 5688 5688 5685 5682 5681 5681 5683 5682 5682 5680 5679
5719 5718 5717 5717 5716 5715 5715 5714 5713 5711 5709 5707 5705 5703 5701 5700 5700 5700 5698 5697 5695 5694 5694 5693 5692 5692 5691 5689 5688 5687 5686 5683 5682 5682 5682 5682 5680 5676 5675 5677 5678 5676 5675
5715 5714 5714 5714 5713 5712 5710 5709 5709 5707 5705 5704 5701 5700 5699 5699 5698 5696 5695 5694 5693 5691 5690 5689 5689 5688 5687 5686 5685 5683 5682 5681 5679 5678 5677 5676 5675 5676 5673 5670 5671 5672 5672
5711 5710 5710 5709 5708 5706 5704 5703 5702 5701 5700 5699 5698 5697 5696 5694 5693 5691 5691 5690 5690 5688 5687 5686 5685 5684 5683 5682 5680 5679 5678 5677 5675 5674 5674 5672 5671 5671 5670 5669 5668 5668 5668
5708 5706 5704 5703 5702 5701 5699 5698 5697 5696 5695 5695 5695 5695 5693 5692 5690 5689 5687 5686 5686 5685 5684 5682 5681 5680 5679 5678 5676 5675 5674 5673 5671 5670 5670 5669 5669 5668 5667 5666 5665 5664 5665
5703 5701 5700 5699 5698 5696 5695 5694 5693 5692 5691 5690 5691 5691 5690 5688 5687 5686 5684 5683 5682 5682 5681 5679 5677 5676 5674 5673 5671 5670 5669 5669 5668 5666 5665 5664 5664 5663 5662 5661 5660 5659 5661
5696 5696 5696 5695 5694 5692 5691 5691 5689 5688 5687 5686 5685 5685 5685 5684 5683 5682 5681 5680 5679 5677 5677 5675 5673 5672 5670 5668 5667 5665 5665 5664 5663 5662 5660 5659 5659 5658 5658 5658 5657 5655 5654
5691 5691 5691 5690 5690 5688 5687 5687 5685 5683 5682 5680 5680 5679 5679 5679 5678 5677 5676 5675 5674 5672 5671 5671 5669 5667 5665 5663 5662 5660 5659 5658 5657 5655 5655 5654 5654 5653 5653 5652 5652 5652 5650
5685 5685 5685 5685 5684 5683 5682 5681 5679 5677 5676 5675 5674 5673 5673 5673 5673 5672 5671 5670 5669 5668 5666 5665 5664 5662 5660 5658 5656 5654 5652 5652 5651 5650 5649 5648 5648 5647 5647 5647 5647 5646 5646
5680 5679 5678 5677 5676 5675 5675 5674 5673 5671 5670 5669 5668 5667 5667 5667 5666 5666 5665 5664 5663 5662 5660 5658 5657 5656 5654 5652 5650 5647 5646 5645 5644 5644 5643 5643 5642 5641 5641 5641 5641 5641 5641
5673 5672 5671 5670 5669 5668 5668 5667 5666 5665 5663 5662 5661 5661 5661 5660 5659 5659 5659 5658 5657 5655 5654 5652 5650 5649 5647 5645 5644 5642 5640 5639 5638 5637 5637 5636 5636 5635 5635 5635 5635 5635 5635
5666 5665 5664 5663 5662 5661 5660 5659 5658 5658 5656 5655 5654 5654 5654 5653 5652 5651 5651 5650 5650 5648 5646 5645 5644 5642 5640 5639 5637 5635 5634 5633 5632 5631 5630 5629 5629 5629 5629 5628 5629 5628 5628
5658 5657 5656 5655 5654 5653 5652 5651 5650 5649 5649 5648 5647 5647 5647 5646 5644 5643 5642 5642 5641 5640 5639 5637 5636 5635 5633 5631 5629 5627 5627 5626 5625 5624 5623 5622 5621 5620 5620 5621 5621 5620 5621
5650 5650 5649 5648 5646 5645 5644 5643 5642 5641 5641 5640 5640 5639 5638 5637 5636 5635 5634 5633 5632 5631 5630 5628 5627 5626 5625 5621 5618 5617 5617 5618 5617 5616 5616 5615 5613 5611 5610 5611 5611 5611 5612
5642 5642 5641 5640 5639 5637 5636 5635 5634 5633 5633 5633 5632 5631 5630 5628 5627 5626 5625 5624 5624 5622 5621 5619 5619 5618 5616 5613 5610 5607 5608 5609 5609 5609 5608 5608 5607 5605 5605 5605 5603 5604 5603
5634 5634 5633 5631 5630 5629 5628 5627 5626 5626 5625 5624 5624 5623 5621 5620 5619 5617 5616 5616 5616 5614 5612 5611 5611 5609 5608 5604 5601 5599 5600 5601 5602 5601 5601 5601 5601 5599 5598 5600 5600 5601 5601
5626 5625 5623 5623 5621 5620 5619 5618 5618 5617 5616 5615 5614 5614 5612 5611 5609 5608 5608 5608 5607 5606 5605 5603 5602 5601 5600 5596 5594 5591 5593 5595 5595 5595 5594 5593 5593 5592 5589 5591 5593 5594 5594
5616 5615 5614 5613 5612 5611 5610 5609 5609 5608 5607 5605 5604 5604 5603 5602 5601 5600 5600 5599 5598 5597 5596 5594 5593 5592 5591 5589 5586 5584 5586 5587 5588 5588 5587 5584 5584 5583 5581 5583 5585 5586 5587
5607 5606 5605 5604 5603 5602 5601 5600 5599 5598 5597 5596 5595 5594 5593 5593 5592 5591 5590 5589 5589 5587 5587 5586 5585 5583 5582 5581 5579 5577 5577 5579 5580 5580 5580 5579 5575 5574 5573 5573 5576 5577 5577
5598 5597 5596 5595 5594 5592 5591 5591 5590 5589 5587 5586 5585 5585 5584 5583 5582 5581 5580 5579 5578 5577 5577 5576 5576 5575 5574 5572 5571 5569 5568 5568 5570 5571 5571 5570 5566 5565 5564 5564 5566 5565 5566
5588 5587 5586 5585 5585 5584 5583 5582 5581 5580 5578 5578 5576 5575 5574 5573 5572 5571 5570 5569 5568 5567 5567 5567 5566 5566 5565 5564 5561 5560 5559 5558 5559 5561 5560 5558 5556 5556 5556 5556 5555 5556 5558
5578 5577 5576 5576 5576 5575 5574 5573 5572 5570 5570 5569 5568 5567 5566 5565 5564 5562 5561 5559 5558 5557 5557 5556 5556 5555 5555 5554 5553 5551 5550 5549 5550 5550 5549 5547 5547 5546 5546 5547 5547 5548 5550
5568 5568 5567 5566 5566 5566 5565 5564 5562 5561 5561 5560 5559 5558 5557 5556 5556 5555 5552 5550 5549 5547 5546 5546 5545 5545 5546 5544 5541 5540 5541 5540 5540 5539 5539 5540 5539 5539 5539 5539 5540 5540 5542
5558 5557 5557 5556 5556 5556 5556 5554 5552 5552 5552 5551 5550 5549 5548 5547 5547 5546 5543 5540 5538 5537 5535 5534 5533 5534 5533 5532 5531 5530 5529 5529 5528 5528 5531 5531 5532 5532 5532 5532 5531 5532 5534